Regional Weather Roundup
Issued by NWS

Home | Current Version | Previous Version | Graphics & Text | Print | Product List | Glossary On
Versions: 1 2 3 4 5 6 7 8 9 10 11 12 13 14 15 16 17 18 19 20 21 22 23 24 25 26 27 28 29 30 31 32 33 34 35 36 37 38 39 40 41 42 43 44 45 46 47 48 49 50
000
ASUS43 KFSD 231610
RWRSD

WEATHER ROUNDUP FOR SOUTH DAKOTA
NATIONAL WEATHER SERVICE SIOUX FALLS SD
1100 AM CDT WED MAY 23 2018

NOTE: "FAIR" INDICATES FEW OR NO CLOUDS BELOW 12,000 FEET WITH NO
SIGNIFICANT WEATHER AND/OR OBSTRUCTIONS TO VISIBILITY.


SDZ001>005-009-010-012>017-231700-
NORTHWEST AND NORTH CENTRAL SOUTH DAKOTA

CITY           SKY/WX    TMP DP  RH WIND       PRES   REMARKS
BUFFALO          N/A     70  59  68 S12       29.84F
FAITH            N/A     65  63  93 SE12      29.90F
MOBRIDGE       MOSUNNY   76  64  66 SE21G33   29.88S
$$

SDZ012>016-024>037-041>051-057-063-072>074-231700-
SOUTHWEST AND SOUTH CENTRAL SOUTH DAKOTA

CITY           SKY/WX    TMP DP  RH WIND       PRES   REMARKS
RAPID CTY ARPT MOSUNNY   66  59  78 E3        29.92F
PIERRE         MOSUNNY   74  67  78 SE20      29.86F
CUSTER         SUNNY     62  49  62 SW5       30.01S
ELLSWORTH AFB  MOSUNNY   66  61  86 CALM      29.92
PHILIP         CLOUDY    67  63  87 SW10      29.89R
PINE RIDGE     PTSUNNY   62  57  83 W10       29.96F
SPEARFISH      FAIR      66  54  63 CALM      29.94F
WINNER         FAIR      77  63  61 S17       29.91F
$$

SDZ004>011-016>023-039-040-231700-
NORTHEAST SOUTH DAKOTA

CITY           SKY/WX    TMP DP  RH WIND       PRES   REMARKS
ABERDEEN       PTSUNNY   68  64  87 SE13G26   29.96R
WATERTOWN      CLOUDY    65  63  93 SE8       30.05R
BROOKINGS      CLOUDY    70  62  76 S16G30    30.06R
SISSETON         N/A     69  64  84 S22       30.02R
$$

SDZ017-020-022-023-036>040-048>070-231700-
SOUTHEAST SOUTH DAKOTA

CITY           SKY/WX    TMP DP  RH WIND       PRES   REMARKS
SIOUX FALLS    CLOUDY    75  66  73 SE20G26   30.04R
HURON          LGT RAIN  68  66  93 SE15G22   29.93F FOG
CHAMBERLAIN    MOSUNNY   75  69  84 SE9       29.92S
MITCHELL       LGT RAIN  74  66  76 SE7       29.99R
YANKTON        MOSUNNY   81  67  62 S15       29.99R
$$

ABBREVIATIONS USED IN REMARKS
   TC - TEMPERATURE IN CELSIUS
  WCI - WIND CHILL INDEX
   HX - HEAT INDEX
  VSB - VISIBILITY




USA.gov is the U.S. government's official web portal to all federal, state and local government web resources and services.